DLH403 KEWR-EDDF

Flight info

Callsign DLH403
Flight time N/A
Altitude 39000
Route MERIT DCT HFD DCT PUT DCT WITCH DCT ALLEX N535B UMESI/M080F390 NATU OLGON/N0465F390 DCT SHA DCT ENJEX DCT ADHAV DCT AXNEF DCT ZIPWE DCT OZZIL DCT SAWPE Q63 CPT UL9 BIG L607 KONAN DCT KOK DCT REMBA DCT SPI T180 NIVNU T847 IMCOM IMCOM1D
Aircraft A346/H-SDE2E3FGHIJ3J4J5M1P2RWXYZ/LB1D1

Departure

Time 2026-05-08 03:14
Airport Newark Liberty International Airport (KEWR)

Arrival

Time N/A
Airport Frankfurt Main Airport (EDDF)
Time Latitude Longitude Altitude Speed Heading
2026-05-08 02:42 40.69127 -74.17365 26 ft 0 kts 356°
2026-05-08 02:59 40.69123 -74.17364 30 ft 3 kts 357°
2026-05-08 02:59 40.69098 -74.17366 26 ft 4 kts 14°
2026-05-08 03:00 40.69078 -74.17378 26 ft 4 kts 44°
2026-05-08 03:00 40.69069 -74.17397 25 ft 4 kts 84°
2026-05-08 03:00 40.69072 -74.17426 25 ft 4 kts 110°
2026-05-08 03:00 40.69083 -74.17459 24 ft 4 kts 117°
2026-05-08 03:01 40.69096 -74.17490 25 ft 4 kts 117°
2026-05-08 03:01 40.69099 -74.17499 25 ft 0 kts 116°
2026-05-08 03:05 40.69099 -74.17498 25 ft 0 kts 116°
2026-05-08 03:05 40.69094 -74.17485 25 ft 3 kts 116°
2026-05-08 03:05 40.69081 -74.17451 24 ft 5 kts 116°
2026-05-08 03:06 40.69062 -74.17401 26 ft 7 kts 116°
2026-05-08 03:06 40.69046 -74.17358 27 ft 9 kts 115°
2026-05-08 03:06 40.69001 -74.17233 26 ft 13 kts 125°
2026-05-08 03:06 40.68936 -74.17219 29 ft 9 kts 202°
2026-05-08 03:07 40.68874 -74.17258 31 ft 10 kts 205°
2026-05-08 03:07 40.68828 -74.17286 31 ft 11 kts 205°
2026-05-08 03:07 40.68752 -74.17335 32 ft 13 kts 206°
2026-05-08 03:07 40.68673 -74.17386 35 ft 13 kts 206°
2026-05-08 03:08 40.68549 -74.17465 32 ft 17 kts 206°
2026-05-08 03:08 40.68470 -74.17516 33 ft 20 kts 206°
2026-05-08 03:08 40.68336 -74.17602 30 ft 23 kts 206°
2026-05-08 03:08 40.68179 -74.17703 29 ft 26 kts 206°
2026-05-08 03:09 40.68012 -74.17809 28 ft 27 kts 204°
2026-05-08 03:09 40.67838 -74.17914 31 ft 28 kts 204°
2026-05-08 03:09 40.67714 -74.17994 30 ft 13 kts 206°
2026-05-08 03:09 40.67689 -74.18010 31 ft 0 kts 206°
2026-05-08 03:10 40.67684 -74.18013 31 ft 2 kts 206°
2026-05-08 03:10 40.67679 -74.18017 31 ft 0 kts 206°
2026-05-08 03:11 40.67674 -74.18020 31 ft 2 kts 206°
2026-05-08 03:11 40.67651 -74.18034 31 ft 5 kts 202°
2026-05-08 03:11 40.67616 -74.18049 30 ft 8 kts 192°
2026-05-08 03:11 40.67602 -74.18049 30 ft 0 kts 149°
2026-05-08 03:12 40.67597 -74.18043 30 ft 2 kts 139°
2026-05-08 03:12 40.67592 -74.18037 30 ft 2 kts 131°
2026-05-08 03:12 40.67580 -74.18013 30 ft 4 kts 120°
2026-05-08 03:12 40.67570 -74.17975 31 ft 6 kts 94°
2026-05-08 03:13 40.67590 -74.17920 31 ft 8 kts 37°
2026-05-08 03:13 40.67655 -74.17869 29 ft 13 kts 28°
2026-05-08 03:13 40.67761 -74.17800 28 ft 33 kts 26°
2026-05-08 03:13 40.68202 -74.17521 28 ft 105 kts 25°
2026-05-08 03:14 40.69055 -74.16981 30 ft 163 kts 26°
2026-05-08 03:14 40.70183 -74.16284 369 ft 184 kts 26°
2026-05-08 03:14 40.71325 -74.15499 1161 ft 183 kts 28°
2026-05-08 03:14 40.72448 -74.14674 1973 ft 185 kts 27°
2026-05-08 03:15 40.73593 -74.13888 2788 ft 186 kts 33°
2026-05-08 03:15 40.74542 -74.12714 3546 ft 188 kts 49°
2026-05-08 03:15 40.75394 -74.11334 4144 ft 201 kts 51°
2026-05-08 03:15 40.76293 -74.09843 4663 ft 218 kts 50°
2026-05-08 03:16 40.77305 -74.08211 5195 ft 236 kts 49°
2026-05-08 03:16 40.78406 -74.06479 5745 ft 254 kts 48°
2026-05-08 03:16 40.79596 -74.04638 6298 ft 272 kts 47°
2026-05-08 03:16 40.80870 -74.02680 6865 ft 288 kts 47°
2026-05-08 03:17 40.82191 -74.00650 7705 ft 293 kts 46°
2026-05-08 03:17 40.83332 -73.98894 8479 ft 295 kts 45°
2026-05-08 03:17 40.84690 -73.96808 9407 ft 298 kts 45°
2026-05-08 03:17 40.86057 -73.94714 10274 ft 302 kts 44°
2026-05-08 03:18 40.87480 -73.92548 10850 ft 316 kts 44°
2026-05-08 03:18 40.88969 -73.90286 11266 ft 334 kts 44°
2026-05-08 03:18 40.90521 -73.87922 11653 ft 353 kts 45°
2026-05-08 03:18 40.92176 -73.85391 12034 ft 371 kts 45°
2026-05-08 03:19 40.93913 -73.82728 12412 ft 390 kts 45°
2026-05-08 03:19 40.95737 -73.79928 12801 ft 407 kts 45°
2026-05-08 03:19 40.97610 -73.77044 13449 ft 416 kts 45°
2026-05-08 03:19 40.99520 -73.74094 14180 ft 421 kts 45°
2026-05-08 03:20 41.01159 -73.71567 14732 ft 427 kts 46°
2026-05-08 03:20 41.03133 -73.68523 15299 ft 437 kts 46°
2026-05-08 03:20 41.05139 -73.65421 15905 ft 444 kts 47°
2026-05-08 03:20 41.07129 -73.62324 16632 ft 447 kts 47°
2026-05-08 03:21 41.09166 -73.59151 17244 ft 455 kts 47°
2026-05-08 03:21 41.11250 -73.55906 17787 ft 464 kts 48°
2026-05-08 03:21 41.13370 -73.52607 18330 ft 472 kts 48°
2026-05-08 03:21 41.15521 -73.49256 18847 ft 479 kts 48°
2026-05-08 03:22 41.17689 -73.45873 19558 ft 480 kts 48°
2026-05-08 03:22 41.19855 -73.42492 20284 ft 482 kts 47°
2026-05-08 03:22 41.22023 -73.39110 20853 ft 488 kts 47°
2026-05-08 03:22 41.24239 -73.35651 21411 ft 493 kts 47°
2026-05-08 03:23 41.26484 -73.32146 21943 ft 499 kts 47°
2026-05-08 03:23 41.28661 -73.28742 22440 ft 504 kts 47°
2026-05-08 03:23 41.30945 -73.25165 23023 ft 508 kts 47°
2026-05-08 03:23 41.33253 -73.21545 23581 ft 513 kts 46°
2026-05-08 03:24 41.35552 -73.17939 24036 ft 518 kts 47°
2026-05-08 03:24 41.37801 -73.14142 24544 ft 523 kts 51°
2026-05-08 03:24 41.39878 -73.10131 25018 ft 529 kts 56°